Location: Clarac
(43.2219°N, 0.2460°E)
Time: 15:15:25
(UTC+00:00)

Daily predictions for brighter satellites

Satellite Brightness Start Highest point End
(mag) Time Altitude Azimuth Time Altitude Azimuth Time Altitude Azimuth
BREEZE-M DEB (TANK) 3.4 19:10:47 10° W 19:13:56 65° NNW 19:23:25 10° ENE
Cosmos 2333 Rocket 2.4 19:11:05 10° NNW 19:16:52 84° WSW 19:22:35 10° SSE
SAR-Lupe-4 3.5 19:16:03 10° NNE 19:19:40 83° E 19:23:14 10° SSW
FALCON 9 DEB 3.7 19:18:12 10° SSW 19:20:52 29° SE 19:23:33 10° ENE
Cosmos 389 Rocket 3.8 19:18:57 10° SE 19:21:43 22° E 19:24:30 10° NE
CZ-2C R/B 3.1 19:17:01 10° N 19:22:12 68° WNW 19:27:26 10° SSW
Cosmos 2098 Rocket 4.4 19:15:13 10° N 19:22:34 78° E 19:29:52 10° SSE
Cosmos 2322 4.0 19:18:05 10° NNW 19:23:44 71° WSW 19:29:21 10° SSE
CSL-04 Rocket 3.8 19:18:47 10° SSE 19:24:04 80° WSW 19:29:23 10° NNW
Ariane Rocket 3.7 19:19:48 10° SE 19:24:20 35° ENE 19:28:54 10° N
ERS-2 2.0 19:20:45 10° NNE 19:24:24 82° ESE 19:28:01 10° SSW
Nadezhda 4 Rocket 4.5 19:18:25 10° NNW 19:24:41 69° W 19:30:50 10° S
Cosmos 614 Rocket 4.2 19:20:00 10° S 19:24:54 47° ESE 19:29:48 10° NNE
COSMOS 2487 4.4 19:23:21 10° SW 19:26:29 35° WNW 19:29:39 10° N
Cosmos 2251 Rocket 3.5 19:21:17 10° S 19:26:36 69° ESE 19:31:55 10° NNE
ATLAS 3B R/B 2.9 19:23:56 10° NW 19:31:01 82° NE 19:38:23 10° SE
Cosmos 2279 Rocket 4.4 19:26:11 10° SSE 19:31:53 41° E 19:37:37 10° NNE
Cosmos 1980 4.2 19:33:45 10° NNW 19:39:10 44° ENE 19:44:12 12° SE
Cosmos 2360 Rocket 4.4 19:34:45 10° NW 19:39:15 25° WSW 19:43:43 10° SSW
SL-16 R/B 3.9 19:35:31 10° N 19:39:18 18° NE 19:43:05 10° E
Cosmos 2026 Rocket 3.9 19:34:03 10° N 19:40:10 76° E 19:46:19 10° SSE
SME Rocket 3.9 19:37:31 10° N 19:41:32 63° WNW 19:46:58 10° SSW
Cosmos 2151 4.4 19:38:14 10° NNE 19:41:35 22° ENE 19:44:10 13° ESE
FALCON 9 DEB 3.3 19:39:45 10° SSW 19:42:37 38° SE 19:45:30 10° ENE
Cosmos 1992 Rocket 4.5 19:39:55 10° NNW 19:45:04 62° WSW 19:50:12 10° S
Cosmos 1455 2.7 19:42:08 10° SSW 19:45:49 60° W 19:49:32 10° N
COSMOS 2455 4.0 19:42:28 10° SSE 19:46:39 20° ESE 19:50:50 10° ENE
SL-4 R/B 2.4 19:45:20 10° SSW 19:49:26 48° SE 19:53:51 10° ENE
IRS-1A Rocket 4.3 19:44:25 10° SSE 19:49:55 64° ENE 19:55:35 10° N
USA 186 2.6 19:49:37 10° S 19:52:50 51° W 19:55:55 10° NNW
CZ-4 R/B 4.4 19:50:22 10° SW 19:52:50 15° W 19:55:19 10° NW
BREEZE M DEB (TANK) 4.2 19:50:23 10° S 19:53:14 27° ESE 19:59:21 10° ENE
Cosmos 2219 Rocket 3.1 19:48:25 10° NW 19:53:53 50° WSW 19:59:19 10° S
BREEZE-M DEB (TANK) 3.6 19:52:28 10° W 19:54:33 23° SSW 19:57:32 11° SSE
OBJECT-B 1.0 19:54:20 10° S 19:57:32 73° WSW 20:00:47 10° NNW
Cosmos 1076 Rocket 3.6 19:53:43 10° N 19:58:01 58° E 20:01:45 13° SSE
COSMOS 2428 3.4 19:52:34 10° NNW 19:58:10 55° WSW 20:03:44 10° S
ATLAS 5 CENTAUR R/B 1.5 19:57:17 10° NW 19:59:05 43° SW 20:01:00 16° SSE
Meteor 2-1 Rocket 4.4 19:54:01 10° SSW 19:59:51 83° W 20:05:50 10° N
Cosmos 1634 Rocket 4.2 19:55:39 10° SSW 20:01:54 75° W 20:08:10 10° N
Cosmos 2344 3.9 19:56:28 10° SW 20:03:58 71° NW 20:11:50 10° NE
Cosmos 2292 Rocket 4.2 19:58:20 10° N 20:04:36 63° ENE 20:08:34 15° SSE
Cosmos 407 Rocket 3.5 20:00:25 10° S 20:05:26 59° ESE 20:10:32 10° NNE
ARIANE 5 R/B 4.4 20:04:04 14° E 20:05:32 16° ENE 20:08:11 10° NNE
SL-8 R/B 4.4 20:01:10 10° WNW 20:05:46 45° SW 20:09:04 18° SSE
Cosmos 1356 3.3 20:02:26 10° N 20:05:52 89° W 20:08:39 15° S
IRIDIUM 104 4.3 20:04:39 10° S 20:09:47 63° E 20:14:58 10° N
Cosmos 1023 Rocket 4.4 20:05:32 10° S 20:10:30 59° ESE 20:15:31 10° NNE
Meteor 2-3 Rocket 4.2 20:09:02 10° N 20:14:31 44° ENE 20:17:47 22° SE
Cosmos 44 Rocket 4.2 20:12:39 10° S 20:16:56 29° ESE 20:21:20 10° NE
Cosmos 405 Rocket 3.2 20:14:07 10° NNW 20:18:03 62° W 20:21:35 12° S
Cosmos 1140 Rocket 3.4 20:13:37 10° S 20:18:42 68° ESE 20:23:48 10° NNE
IRIDIUM 114 4.2 20:13:44 10° S 20:18:55 77° E 20:24:09 10° N
NOSS 0 Rocket 4.2 20:13:03 10° NNW 20:19:14 69° WSW 20:24:39 14° SSE
Cosmos 1812 Rocket 3.5 20:16:18 10° S 20:20:43 85° E 20:25:13 10° N
Cosmos 1954 Rocket 4.4 20:19:29 17° SSE 20:22:53 38° ESE 20:27:38 10° NE
Timation 2 Rocket 4.0 20:19:00 10° SSW 20:25:32 68° ESE 20:31:49 10° NNE
CZ-2C R/B 4.0 20:21:48 10° NNE 20:26:01 41° E 20:27:43 29° SSE
Cosmos 2237 Rocket 2.2 20:21:26 10° NNW 20:27:06 87° WSW 20:30:48 22° SSE
IRIDIUM 103 4.3 20:22:51 10° S 20:28:04 88° W 20:33:19 10° N
Cosmos 2180 Rocket 4.4 20:22:06 10° S 20:28:16 86° E 20:34:26 10° N
Abrixas rocket 4.0 20:27:50 10° NW 20:28:20 12° NNW 20:28:20 12° NNW
Meteor 2-21 4.4 20:23:32 10° N 20:29:37 78° E 20:34:06 19° SSE
Cosmos 1825 4.4 20:27:10 10° NW 20:30:15 24° W 20:33:19 10° SW
BREEZE M DEB (TANK) 3.5 20:24:07 10° WSW 20:33:42 60° NNW 20:36:34 12° NE
Spot 2 Rocket 4.3 20:32:07 27° ESE 20:33:48 35° ENE 20:38:22 10° N
Cosmos 1766 Rocket 4.3 20:31:50 10° N 20:35:46 33° ENE 20:36:22 31° E
FALCON 9 DEB 3.4 20:36:44 10° WSW 20:39:44 56° NNW 20:41:38 20° NE
Cosmos 2227 Rocket 2.1 20:34:39 10° SSW 20:40:19 86° ESE 20:46:01 10° NNE
Cosmos 2082 3.9 20:37:15 22° SSE 20:40:33 45° ESE 20:45:53 10° NE
Cosmos 1633 2.6 20:38:32 10° NNW 20:42:07 72° W 20:43:19 38° S
FALCON 9 DEB 4.0 20:41:30 10° WSW 20:44:24 42° NNW 20:46:28 17° NE
Okean 3 Rocket 4.1 20:40:41 10° N 20:44:59 42° ENE 20:45:39 39° E
Lacrosse 5 rocket 4.0 20:44:00 10° NNW 20:46:20 14° NNE 20:48:44 10° NE
Cosmos 1655 Rocket 4.0 20:40:31 10° N 20:46:50 90° WSW 20:50:54 23° S
Cosmos 2297 Rocket 2.5 20:41:24 10° SW 20:47:01 67° WNW 20:52:40 10° NNE
Cosmos 1869 3.6 20:47:58 46° E 20:47:58 46° E 20:51:40 10° NNE
Resurs 01 Rocket 1.8 20:46:10 28° S 20:48:25 70° WSW 20:52:53 10° NNW
Meteor 1-4 Rocket 3.5 20:50:30 33° NE 20:50:30 33° NE 20:52:52 10° NNE
Genesis I 3.2 20:47:47 10° NW 20:51:48 79° SW 20:52:33 57° SSE
Cosmos 2219 3.6 20:50:45 10° SW 20:56:17 62° WNW 21:01:53 10° NNE
Cosmos 2084 Rocket 4.2 20:55:48 10° SW 20:59:39 49° NW 21:03:36 10° NNE
Cosmos 1763 Rocket 4.0 20:58:50 10° N 21:03:36 40° ENE 21:04:17 38° E
Terra 2.9 21:03:52 28° ENE 21:04:01 28° ENE 21:08:04 10° N
Meteor 2-8 Rocket 4.3 21:02:56 34° S 21:05:45 72° E 21:11:52 10° NNE
BREEZE-M DEB (TANK) 3.4 21:07:26 10° WNW 21:08:46 33° NW 21:08:46 33° NW
MINOTAUR IV R/B 4.5 21:08:50 10° NNW 21:13:22 83° WSW 21:13:51 70° S
SPOT 5 3.1 21:14:08 48° ENE 21:14:14 48° ENE 21:18:51 10° N
Cosmos-2242 4.1 21:12:34 19° SW 21:15:22 44° WNW 21:19:30 10° N
SPOT 1/Viking Rocket 3.6 21:14:17 47° S 21:15:49 78° WSW 21:21:05 10° NNW
Meteor 2-2 Rocket 4.5 21:15:41 47° ESE 21:15:59 47° E 21:21:25 10° NNE
NOSS 3-1 (C) 4.5 21:09:36 10° NNW 21:16:52 53° NE 21:20:23 34° ESE
Cosmos 676 Rocket 4.3 21:17:21 15° SSW 21:21:37 66° WNW 21:26:47 10° NNE
USA 215 3.4 21:21:35 39° ESE 21:24:04 66° NE 21:30:33 10° NW
SL-16 R/B 2.1 21:18:28 10° NNW 21:24:12 85° WSW 21:25:19 59° SSE
SL-4 R/B 3.3 21:24:53 10° W 21:29:11 45° NNW 21:33:32 11° NE
COSMOS 2455 3.1 21:25:58 10° SW 21:31:57 70° WNW 21:37:59 10° NNE
ERS-1 Rocket 2.8 21:33:53 78° ESE 21:34:02 80° ENE 21:39:05 10° N
Cosmos 1408 Rocket 3.9 21:31:14 10° N 21:34:52 59° NNE 21:34:52 59° NNE
Cosmos 2221 3.3 21:41:54 44° NNE 21:41:54 44° NNE 21:44:53 10° NNE
ARIANE 5 R/B 3.1 21:41:36 54° W 21:41:36 54° W 21:45:53 10° NNW
Cosmos 1862 4.4 21:38:51 10° N 21:41:30 40° N 21:41:30 40° N
Meteor 2-15 Rocket 4.3 21:43:55 68° SSE 21:44:43 82° E 21:50:48 10° N
Cosmos 1943 3.9 21:44:42 10° NNW 21:50:00 40° ENE 21:50:06 40° ENE
Cosmos 1745 Rocket 4.3 21:47:17 10° N 21:53:24 50° ENE 21:53:25 50° ENE
Cosmos 44 Rocket 4.5 21:53:28 10° WSW 21:58:18 43° NW 22:03:17 10° NNE
Cosmos 1741 Rocket 4.1 22:05:12 73° NW 22:05:12 73° NW 22:10:15 10° NNE
S3M 4.1 22:05:25 61° ENE 22:05:25 61° ENE 22:11:24 10° NNE
BREEZE-M DEB (TANK) 3.9 22:00:14 10° WNW 22:06:19 51° NW 22:06:19 51° NW
Cosmos 1850 Rocket 4.2 22:08:07 66° WNW 22:08:07 66° WNW 22:13:12 10° NNE
Cosmos 2263 Rocket 2.5 22:16:15 58° NNE 22:16:15 58° NNE 22:20:42 10° NNE
Aureole 1 Rocket 3.8 22:17:35 65° NNW 22:17:35 65° NNW 22:21:45 10° NNE
SL-08 R/B 4.5 22:16:04 10° NNW 22:22:15 71° W 22:22:23 71° WSW
Cosmos 1386 Rocket 4.4 22:16:47 10° N 22:22:22 74° NNE 22:22:22 74° NNE
USA 229 DEB 3.8 22:18:54 10° NW 22:26:18 82° NE 22:27:01 74° ESE
USA 229 3.8 22:19:00 10° NW 22:26:24 82° NE 22:27:08 74° ESE
Lacrosse 5 rocket 3.2 22:22:36 10° NNW 22:25:34 30° N 22:25:34 30° N
Cosmos 1553 Rocket 4.3 22:33:03 55° W 22:33:27 56° WNW 22:39:27 10° N
Cosmos 841 Rocket 4.3 22:32:27 10° NNW 22:36:20 47° NW 22:36:20 47° NW
Cosmos 1603 4.1 22:33:10 10° NNW 22:37:52 61° NW 22:37:52 61° NW
Terra 3.4 22:42:44 29° WNW 22:42:44 29° WNW 22:45:57 10° NNW
NOSS 3-1 (A) 4.0 22:36:39 10° NW 22:44:21 87° SW 22:45:03 77° SSE
USA 215 4.2 23:08:55 34° W 23:08:55 34° W 23:13:21 10° WNW
SL-4 R/B 4.2 23:05:38 10° WNW 23:09:09 28° NNW 23:09:09 28° NNW
Cosmos 2315 Rocket 4.3 23:16:01 64° NNW 23:16:01 64° NNW 23:21:31 10° N
ATLAS 5 CENTAUR R/B 4.4 23:20:17 10° NNW 23:24:13 20° NE 23:27:06 15° ENE
SeaSat 1 3.8 23:27:45 10° NNE 23:31:05 36° NNW 23:31:05 36° NNW
Cosmos 2074 Rocket 4.4 23:36:09 10° N 23:41:12 58° NNE 23:41:12 58° NNE
USA 281 4.0 23:43:09 40° ENE 23:43:43 41° NE 23:49:47 10° NNW
